Tracking 25612 objects as of 19-May-2022
HD Live streaming from Space Station
objects crossing your sky now

ARIANE 42P DEB

Track ARIANE 42P DEB now!
10-day predictions


NORAD ID: 44514
Int'l Code: 1992-052M
Perigee: 1,083.9 km
Apogee: 1,544.5 km
Inclination: 65.8 °
Period: 111.7 minutes
Semi major axis: 7685 km
RCS: Unknown
Launch date: August 10, 1992
Source: France (FR)
Launch site: FRENCH GUIANA (FRGUI)

Note: This is SATELLITE DEBRIS
aabbcc
Your satellite tracking list
Your tracking list is empty




NASA's NSSDC Master Catalog

Two Line Element Set (TLE):
1 44514U 92052M   22138.56158439 -.00004813  00000-0 -15207-1 0  9997
2 44514  65.7700  79.2105 0299691 272.2263  84.4472 12.88612612129096
Source of the keplerian elements: AFSPC